Regional Weather Roundup
Issued by NWS Goodland, KS

Home | Current Version | Previous Version | Graphics & Text | Print | Product List | Glossary On
Versions: 1 2 3 4 5 6 7 8 9 10 11 12 13 14 15 16 17 18 19 20 21 22 23 24 25 26 27 28 29 30 31 32 33 34 35 36 37 38 39 40 41 42 43 44 45 46 47 48 49 50
000
ASUS43 KGLD 032059
RWRGLD

GOODLAND FORECAST AREA HOURLY WEATHER ROUNDUP
NATIONAL WEATHER SERVICE GOODLAND KS
300 PM MDT FRI JUL 03 2015

...OFFICIAL OBSERVATIONS...

CITY           SKY/WX    TMP DP  RH WIND       PRES   REMARKS
GOODLAND KS    PTSUNNY   84  54  35 VRB3      30.05F
HILL CITY KS   SUNNY     86  59  39 E7G20     30.00F
IMPERIAL NEB   SUNNY     86  53  32 VRB3      30.04F
MCCOOK NEB     SUNNY     83  60  45 MISG      30.01F
AKRON CO       MOSUNNY   81  58  45 VRB7      30.11F
BURLINGTON CO  SUNNY     83  52  34 VRB3      30.09F
LIMON CO       SUNNY     80  57  45 S9        30.14F
$$

...UNOFFICIAL OBSERVATIONS...

CITY           SKY/WX    TMP DP  RH WIND       PRES   REMARKS
COLBY KS       MOSUNNY   86  57  37 CALM      30.03F
GOVE KS          N/A     78  32  18 MISG        N/A
NORTON KS      SUNNY     81  54  39 N8G16     30.01F
SHARON SPRINGS   N/A     87  55  33 CALM        N/A
YUMA CO          N/A     84  59  42 CALM        N/A
$$



USA.gov is the U.S. government's official web portal to all federal, state and local government web resources and services.